Location: Schommer Observatory
(40.5200°N, 74.4500°W)
Time: 16:53:33
(UTC-04:00)

OTV 5 (USA 277) - Pass Details

Date: 08 October 2017
Orbit: 404 x 417 km, 43.0° (Epoch: 07 September)

Event Time Altitude Azimuth Distance (km) Brightness Sun altitude
Rises 19:48:04 0° 220° (SW) 2,343 ? -16.0°
Reaches altitude 10° 19:50:22 10° 206° (SSW) 1,483 ? -16.4°
Enters shadow 19:52:56 25° 158° (SSE) 876 ? -16.9°
